GW0138 Weather Reports


time (UTC)temp
C
wind
direction
speed
KPH
gust
KPH
rain 1hr
cm
rain 24hr
cm
rain mn
cm
humidity
%
barometer
mb
20260509112932 13 225 4.8 6.4 0.00 0.00 0.00 69 1017.1
20260509112421 13 203 3.2 9.7 0.00 0.00 0.00 70 1017.2
20260509110852 13 225 6.4 9.7 0.00 0.00 0.00 70 1017.0
20260509110340 13 248 3.2 9.7 0.00 0.00 0.00 71 1016.6
20260509105830 13 225 3.2 11.3 0.00 0.00 0.00 70 1016.6
20260509105320 13 225 4.8 11.3 0.00 0.00 0.00 70 1016.5
20260509104811 13 225 4.8 9.7 0.00 0.00 0.00 71 1016.3
20260509104300 13 225 3.2 9.7 0.00 0.00 0.00 70 1016.1
20260509103750 12 225 3.2 9.7 0.00 0.00 0.00 71 1015.9
20260509103240 12 180 3.2 9.7 0.00 0.00 0.00 72 1015.6
20260509102730 13 248 3.2 9.7 0.00 0.00 0.00 71 1015.7
20260509102220 13 180 4.8 9.7 0.00 0.00 0.00 71 1015.3
20260509101710 12 203 3.2 9.7 0.00 0.00 0.00 72 1015.2
20260509101200 13 180 3.2 6.4 0.00 0.00 0.00 72 1015.2
20260509100139 13 203 4.8 6.4 0.00 0.00 0.00 71 1014.7
20260509095629 13 203 1.6 9.7 0.00 0.00 0.00 72 1014.7
20260509095119 13 248 3.2 9.7 0.00 0.00 0.00 70 1014.4
20260509094607 13 248 4.8 6.4 0.00 0.00 0.00 70 1014.4
20260509094059 13 203 4.8 14.5 0.00 0.00 0.00 70 1014.1
20260509093549 13 225 6.4 14.5 0.00 0.00 0.00 70 1014.0
20260509092528 13 248 6.4 14.5 0.00 0.00 0.00 70 1013.7
20260509092018 13 225 6.4 14.5 0.00 0.00 0.00 70 1013.5
20260509091508 13 180 6.4 9.7 0.00 0.00 0.00 71 1013.6
20260509090448 13 248 3.2 9.7 0.00 0.00 0.00 71 1013.1
20260509085938 13 225 4.8 9.7 0.00 0.00 0.00 71 1013.0
20260509085428 13 225 4.8 9.7 0.00 0.00 0.00 72 1013.1
20260509084407 13 225 3.2 12.9 0.00 0.00 0.00 74 1012.8
20260509082837 13 225 8.0 17.7 0.00 0.00 0.00 73 1011.9
20260509082327 13 203 6.4 14.5 0.00 0.00 0.00 72 1012.0
20260509081816 13 203 8.0 12.9 0.00 0.00 0.00 73 1012.0
20260509081306 12 225 6.4 12.9 0.00 0.00 0.00 74 1011.8
20260509080757 12 248 6.4 12.9 0.00 0.00 0.00 75 1011.9
20260509075736 12 203 6.4 12.9 0.00 0.00 0.00 75 1011.7
20260509074716 13 203 6.4 11.3 0.00 0.00 0.00 74 1011.9
20260509073657 13 225 4.8 9.7 0.00 0.00 0.00 75 1011.8
20260509073145 13 203 4.8 9.7 0.00 0.00 0.00 74 1011.7
20260509072635 13 248 4.8 6.4 0.00 0.00 0.00 74 1011.5
20260509072126 13 203 4.8 9.7 0.00 0.00 0.00 74 1011.6
20260509071616 13 225 4.8 11.3 0.00 0.00 0.00 74 1011.4
20260509071105 13 225 6.4 11.3 0.00 0.00 0.00 73 1011.5
20260509070602 13 248 6.4 17.7 0.00 0.00 0.00 72 1011.3
20260509070046 13 248 6.4 17.7 0.00 0.00 0.00 73 1011.4
20260509065536 13 180 6.4 17.7 0.00 0.00 0.00 73 1011.2
20260509065025 13 203 6.4 12.9 0.00 0.00 0.00 72 1011.1
20260509064516 13 203 6.4 11.3 0.00 0.00 0.00 73 1011.1
20260509064005 13 203 6.4 11.3 0.00 0.00 0.00 74 1011.1
20260509063455 13 248 3.2 11.3 0.00 0.00 0.00 76 1011.0
20260509062944 13 225 6.4 11.3 0.00 0.00 0.00 77 1010.8
20260509062434 13 248 6.4 11.3 0.00 0.00 0.00 78 1010.9
20260509061924 13 248 3.2 11.3 0.00 0.00 0.00 80 1010.8
20260509060904 13 203 3.2 6.4 0.00 0.00 0.00 82 1011.0
20260509060155 13 225 1.6 0.0 0.00 0.00 0.00 82 1011.2
20260509055027 12 248 1.6 3.2 0.00 0.00 0.00 81 1011.1
20260509054518 12 248 3.2 3.2 0.00 0.00 0.00 80 1011.1
20260509054007 12 225 1.6 6.4 0.00 0.00 0.00 80 1011.3
20260509053457 12 225 1.6 6.4 0.00 0.00 0.00 79 1011.2
20260509052947 12 248 3.2 6.4 0.00 0.00 0.00 79 1011.0
20260509051417 12 225 3.2 6.4 0.00 0.00 0.00 79 1011.0
20260509050907 12 248 3.2 6.4 0.00 0.00 0.00 78 1011.3
20260509050357 12 248 1.6 6.4 0.00 0.00 0.00 78 1011.4
20260509045846 12 248 3.2 6.4 0.00 0.00 0.00 77 1011.4
20260509045336 12 225 3.2 11.3 0.00 0.00 0.00 78 1011.4
20260509044826 12 270 6.4 11.3 0.00 0.00 0.00 78 1011.4
20260509044316 12 248 3.2 6.4 0.00 0.00 0.00 79 1011.4
20260509043256 12 248 3.2 6.4 0.00 0.00 0.00 80 1011.5
20260509042745 12 248 1.6 6.4 0.00 0.00 0.00 80 1011.6
20260509042235 12 270 3.2 6.4 0.00 0.00 0.00 79 1011.7
20260509041727 12 270 3.2 6.4 0.00 0.00 0.00 79 1011.8
20260509041216 12 270 3.2 6.4 0.00 0.00 0.00 78 1012.0
20260509040705 12 248 3.2 6.4 0.00 0.00 0.00 77 1011.9
20260509040155 12 248 3.2 6.4 0.00 0.00 0.00 77 1011.9
20260509035134 12 270 3.2 6.4 0.00 0.00 0.00 77 1011.8
20260509034625 12 270 3.2 6.4 0.00 0.00 0.00 77 1011.6
20260509034114 12 270 3.2 6.4 0.00 0.00 0.00 77 1011.6
20260509033605 12 270 1.6 6.4 0.00 0.00 0.00 77 1011.6
20260509033054 12 270 1.6 6.4 0.00 0.00 0.00 77 1011.5
20260509032544 12 248 3.2 6.4 0.00 0.00 0.00 78 1011.6
20260509032035 12 225 3.2 6.4 0.00 0.00 0.00 78 1011.3
20260509031524 12 225 3.2 6.4 0.00 0.00 0.00 80 1011.8
20260509030504 12 248 3.2 6.4 0.00 0.00 0.00 80 1011.6
20260509025954 12 248 3.2 6.4 0.00 0.00 0.00 81 1011.6
20260509025443 12 270 3.2 9.7 0.00 0.00 0.00 82 1011.7
20260509024424 13 248 3.2 6.4 0.00 0.00 0.00 84 1011.5
20260509023914 13 293 4.8 6.4 0.00 0.00 0.00 84 1011.5
20260509023403 12 248 3.2 6.4 0.00 0.00 0.00 87 1011.6
20260509022854 12 270 0.0 0.0 0.00 0.00 0.00 90 1011.6
20260509022343 12 293 0.0 0.0 0.00 0.00 0.00 91 1011.7
20260509021322 12 293 0.0 0.0 0.00 0.00 0.00 92 1011.6
20260509020302 12 293 0.0 0.0 0.00 0.00 0.00 93 1011.8
20260509014732 11 293 0.0 3.2 0.00 0.00 0.00 96 1011.1
20260509014223 11 293 0.0 3.2 0.00 0.00 0.00 96 1011.0
20260509012652 11 338 0.0 0.0 0.00 0.00 0.00 96 1011.1
20260509012142 11 338 0.0 0.0 0.00 0.00 0.00 96 1011.0
20260509011632 11 338 0.0 0.0 0.00 0.00 0.00 96 1010.7
20260509011120 11 338 0.0 0.0 0.00 0.00 0.00 96 1010.6
20260509010611 11 338 0.0 0.0 0.00 0.00 0.00 96 1010.2
20260509005551 11 338 0.0 0.0 0.00 0.00 0.00 96 1010.3
20260509005041 11 338 0.0 0.0 0.00 0.00 0.00 95 1010.2
20260509004534 11 338 0.0 0.0 0.00 0.00 0.00 95 1010.1
20260509004020 11 338 0.0 0.0 0.00 0.00 0.00 95 1010.2
20260509003512 11 338 0.0 0.0 0.00 0.00 0.00 95 1010.0
20260509003000 11 338 0.0 0.0 0.00 0.00 0.00 95 1010.0
20260509002450 11 338 0.0 0.0 0.00 0.00 0.00 95 1010.0
20260509001940 11 338 0.0 0.0 0.00 0.00 0.00 95 1009.9
20260508235900 12 338 0.0 0.0 0.00 0.00 0.00 94 1009.9
20260508235349 12 338 0.0 0.0 0.00 0.00 0.00 94 1009.9
20260508234840 12 338 0.0 0.0 0.00 0.00 0.00 93 1010.1
20260508234330 12 338 0.0 0.0 0.00 0.00 0.00 93 1010.0
20260508233819 12 338 0.0 0.0 0.00 0.00 0.00 93 1009.9
20260508233309 11 338 0.0 0.0 0.00 0.00 0.00 92 1009.7
20260508232759 12 338 0.0 0.0 0.00 0.00 0.00 92 1009.8
20260508232249 12 338 0.0 0.0 0.00 0.00 0.00 92 1009.8
20260508231739 12 338 0.0 0.0 0.00 0.00 0.00 92 1009.7
20260508231229 12 338 0.0 0.0 0.00 0.00 0.00 91 1009.3
20260508230719 12 338 0.0 0.0 0.00 0.00 0.00 91 1009.2
20260508225658 12 338 0.0 0.0 0.00 0.00 0.00 90 1009.1
20260508225148 12 338 0.0 0.0 0.00 0.00 0.00 90 1009.2
20260508224639 12 338 0.0 0.0 0.00 0.00 0.00 89 1009.0
20260508224128 12 338 0.0 0.0 0.00 0.00 0.00 89 1008.9
20260508223108 13 338 0.0 0.0 0.00 0.00 0.00 88 1009.0
20260508222557 13 315 0.0 0.0 0.00 0.00 0.00 87 1009.0
20260508221537 13 293 0.0 0.0 0.00 0.00 0.00 85 1009.0
20260508221027 13 293 0.0 0.0 0.00 0.00 0.00 83 1009.4
20260508220517 12 293 0.0 0.0 0.00 0.00 0.00 82 1009.3
20260508220012 13 293 0.0 0.0 0.00 0.00 0.00 81 1009.2
20260508215457 13 293 0.0 0.0 0.00 0.00 0.00 79 1009.4
20260508214946 13 293 0.0 0.0 0.00 0.00 0.00 78 1009.2
20260508214436 13 293 0.0 0.0 0.00 0.00 0.00 76 1009.3
20260508213926 14 293 0.0 3.2 0.00 0.00 0.00 75 1009.3
20260508211846 15 293 0.0 0.0 0.00 0.00 0.00 70 1009.4
20260508211336 15 293 0.0 0.0 0.00 0.00 0.00 72 1009.4
20260508210826 16 293 0.0 3.2 0.00 0.00 0.00 69 1009.4
20260508210315 16 293 0.0 3.2 0.00 0.00 0.00 66 1009.4
20260508205806 17 293 1.6 3.2 0.00 0.00 0.00 62 1009.7
20260508205257 17 270 1.6 3.2 0.00 0.00 0.00 54 1009.4
20260508204746 18 270 3.2 3.2 0.00 0.00 0.00 51 1009.3
20260508203725 18 270 0.0 6.4 0.00 0.00 0.00 49 1009.7
20260508202705 18 270 3.2 6.4 0.00 0.00 0.00 49 1009.4
20260508202154 18 270 0.0 6.4 0.00 0.00 0.00 47 1009.3
20260508201644 18 248 3.2 6.4 0.00 0.00 0.00 48 1009.3
20260508200624 18 248 4.8 6.4 0.00 0.00 0.00 47 1009.7
20260508200114 18 293 3.2 6.4 0.00 0.00 0.00 44 1009.5
20260508195604 18 270 3.2 6.4 0.00 0.00 0.00 45 1009.4
20260508195055 19 248 3.2 6.4 0.00 0.00 0.00 43 1009.5
20260508194034 19 270 3.2 14.5 0.00 0.00 0.00 42 1009.5
20260508193013 19 248 3.2 9.7 0.00 0.00 0.00 44 1009.4
20260508191955 19 270 6.4 6.4 0.00 0.00 0.00 43 1009.7
20260508191444 20 293 3.2 9.7 0.00 0.00 0.00 44 1009.7
20260508190933 19 248 3.2 12.9 0.00 0.00 0.00 44 1009.4
20260508190423 19 293 3.2 12.9 0.00 0.00 0.00 44 1009.4
20260508185913 19 293 4.8 9.7 0.00 0.00 0.00 44 1009.5
20260508184342 19 270 6.4 11.3 0.00 0.00 0.00 45 1009.4
20260508183833 20 248 6.4 11.3 0.00 0.00 0.00 44 1009.5
20260508182812 20 293 3.2 9.7 0.00 0.00 0.00 47 1009.7
20260508182306 19 270 4.8 12.9 0.00 0.00 0.00 48 1009.8
20260508181752 19 315 3.2 12.9 0.00 0.00 0.00 48 1010.2
20260508181242 19 315 3.2 11.3 0.00 0.00 0.00 45 1010.1
20260508180732 19 270 6.4 11.3 0.00 0.00 0.00 48 1009.9
20260508180222 19 270 3.2 11.3 0.00 0.00 0.00 49 1010.2
20260508175712 19 270 3.2 11.3 0.00 0.00 0.00 45 1010.4
20260508175202 19 248 3.2 12.9 0.00 0.00 0.00 44 1010.2
20260508174142 19 270 8.0 11.3 0.00 0.00 0.00 45 1010.2
20260508173631 19 248 6.4 12.9 0.00 0.00 0.00 42 1010.4
20260508173120 20 270 3.2 14.5 0.00 0.00 0.00 45 1010.4
20260508172611 19 293 6.4 14.5 0.00 0.00 0.00 45 1010.3
20260508172101 20 203 3.2 11.3 0.00 0.00 0.00 44 1010.4
20260508171041 18 270 4.8 14.5 0.00 0.00 0.00 43 1010.7
20260508170531 19 270 8.0 12.9 0.00 0.00 0.00 45 1010.7
20260508170020 20 248 1.6 12.9 0.00 0.00 0.00 46 1010.8
20260508165510 20 203 9.7 12.9 0.00 0.00 0.00 49 1010.7
20260508165000 19 293 4.8 11.3 0.00 0.00 0.00 48 1010.5
20260508164449 18 225 6.4 11.3 0.00 0.00 0.00 47 1010.9
20260508163430 18 248 3.2 12.9 0.00 0.00 0.00 47 1011.1
20260508162920 19 248 4.8 12.9 0.00 0.00 0.00 48 1011.0
20260508162409 19 248 6.4 12.9 0.00 0.00 0.00 47 1011.1
20260508161900 18 270 6.4 9.7 0.00 0.00 0.00 46 1011.3
20260508161350 19 248 3.2 12.9 0.00 0.00 0.00 51 1011.1
20260508160840 18 270 4.8 12.9 0.00 0.00 0.00 49 1011.5
20260508160330 18 270 6.4 12.9 0.00 0.00 0.00 48 1011.3
20260508155819 18 270 3.2 11.3 0.00 0.00 0.00 49 1011.6
20260508155308 18 248 6.4 11.3 0.00 0.00 0.00 48 1011.5
20260508154249 18 293 4.8 9.7 0.00 0.00 0.00 54 1011.7
20260508153739 17 270 3.2 11.3 0.00 0.00 0.00 52 1011.5
20260508153228 17 270 3.2 11.3 0.00 0.00 0.00 52 1011.8
20260508152718 18 270 4.8 11.3 0.00 0.00 0.00 50 1011.8
20260508152208 19 203 1.6 12.9 0.00 0.00 0.00 53 1012.0
20260508151658 18 315 1.6 12.9 0.00 0.00 0.00 50 1012.0
20260508151148 18 248 8.0 12.9 0.00 0.00 0.00 51 1012.0
20260508150128 18 315 4.8 11.3 0.00 0.00 0.00 55 1012.2
20260508145108 18 293 4.8 9.7 0.00 0.00 0.00 54 1012.3
20260508144557 17 270 3.2 9.7 0.00 0.00 0.00 56 1012.4
20260508144047 18 315 4.8 9.7 0.00 0.00 0.00 59 1012.7
20260508143537 17 203 3.2 11.3 0.00 0.00 0.00 59 1012.6
20260508143027 17 248 6.4 11.3 0.00 0.00 0.00 61 1012.7
20260508142516 17 293 4.8 11.3 0.00 0.00 0.00 63 1012.5
20260508142007 17 270 6.4 11.3 0.00 0.00 0.00 63 1012.6
20260508140946 17 225 3.2 11.3 0.00 0.00 0.00 67 1012.5
20260508135926 16 248 3.2 11.3 0.00 0.00 0.00 69 1012.5
20260508135416 16 293 4.8 9.7 0.00 0.00 0.00 68 1012.7
20260508134906 16 270 3.2 9.7 0.00 0.00 0.00 72 1012.8
20260508134356 16 293 3.2 9.7 0.00 0.00 0.00 71 1012.6
20260508133845 16 225 3.2 9.7 0.00 0.00 0.00 71 1012.5
20260508133335 16 225 4.8 11.3 0.00 0.00 0.00 73 1012.4
20260508132827 15 270 6.4 11.3 0.00 0.00 0.00 70 1012.5
20260508132315 15 270 3.2 11.3 0.00 0.00 0.00 74 1012.4
20260508131255 15 270 3.2 12.9 0.00 0.00 0.00 77 1012.2
20260508130235 15 225 6.4 11.3 0.00 0.00 0.00 77 1012.4
20260508125724 15 248 6.4 9.7 0.00 0.00 0.00 79 1012.2
20260508125215 14 293 4.8 9.7 0.00 0.00 0.00 79 1012.1
20260508124155 14 270 6.4 9.7 0.00 0.00 0.00 81 1012.2
20260508123645 14 315 4.8 9.7 0.00 0.00 0.00 83 1011.9
20260508123134 14 293 3.2 9.7 0.00 0.00 0.00 84 1012.0
20260508122624 14 248 3.2 6.4 0.00 0.00 0.00 86 1012.1
20260508121604 13 315 3.2 6.4 0.00 0.00 0.00 88 1012.0
20260508121053 13 315 1.6 6.4 0.00 0.00 0.00 89 1012.0
20260508120544 13 248 3.2 6.4 0.00 0.00 0.00 90 1011.9
20260508115523 12 293 3.2 6.4 0.00 0.00 0.00 92 1011.7
20260508115013 12 315 3.2 6.4 0.00 0.00 0.00 93 1011.7
20260508114503 12 293 3.2 6.4 0.00 0.00 0.00 93 1011.5
20260508113443 12 270 3.2 6.4 0.00 0.00 0.00 94 1011.3